Wetterdaten: aktuell Sonntag, 21.04.2019 09:10
Datum Zeit Wetterhtte Helligkeit Boden -10cm Boden 5cm Temp S Luftfeuchte Luftdruck Regen Wind Richtung Richtung Sonnenschein UV Taupunkt Windchill Windben
21.04.2019 09:10 10,2 C 36,1 C 10,6 C 22,2 C 14,5 C 68 % 1023,6 hPa 0,0 l/m 6,6 km/h S 184 5 min 2,3 UV-I 4,6 C 10,1 C 8,5 km/h
21.04.2019 09:05 10,0 C 35,9 C 10,5 C 21,1 C 14,6 C 68 % 1023,9 hPa 0,0 l/m 4,2 km/h SO 139 5 min 2,0 UV-I 4,4 C 10,0 C 6,9 km/h
21.04.2019 09:00 9,9 C 35,7 C 10,2 C 20,1 C 15,0 C 68 % 1023,9 hPa 0,0 l/m 3,7 km/h O-NO 71 5 min 2,0 UV-I 4,3 C 9,9 C 5,8 km/h
21.04.2019 08:55 9,9 C 35,4 C 10,1 C 19,1 C 14,7 C 68 % 1023,9 hPa 0,0 l/m 3,5 km/h S 184 5 min 1,8 UV-I 4,3 C 9,9 C 3,2 km/h
21.04.2019 08:50 9,8 C 35,2 C 10,1 C 17,2 C 14,9 C 68 % 1023,9 hPa 0,0 l/m 2,4 km/h S 184 5 min 1,6 UV-I 4,2 C 9,8 C 6,4 km/h
21.04.2019 08:45 9,7 C 34,6 C 10,0 C 14,4 C 14,1 C 68 % 1024,0 hPa 0,0 l/m 2,1 km/h S 184 5 min 1,5 UV-I 4,1 C 9,7 C 5,3 km/h
21.04.2019 08:40 9,6 C 34,2 C 10,0 C 11,7 C 13,8 C 69 % 1024,0 hPa 0,0 l/m 1,3 km/h S 184 5 min 1,3 UV-I 4,2 C 9,6 C 3,5 km/h
21.04.2019 08:35 9,3 C 33,6 C 10,0 C 7,9 C 12,9 C 69 % 1024,0 hPa 0,0 l/m 2,1 km/h N-NW 341 5 min 1,2 UV-I 3,9 C 9,3 C 0,0 km/h
21.04.2019 08:30 9,1 C 33,2 C 10,0 C 7,6 C 12,0 C 69 % 1024,0 hPa 0,0 l/m 2,7 km/h S-SO 161 5 min 0,8 UV-I 3,7 C 9,1 C 4,0 km/h
21.04.2019 08:25 8,8 C 32,5 C 10,0 C 7,3 C 11,5 C 70 % 1023,7 hPa 0,0 l/m 2,1 km/h S 184 5 min 0,8 UV-I 3,6 C 8,8 C 4,0 km/h
21.04.2019 08:20 8,7 C 32,1 C 10,0 C 7,1 C 10,9 C 72 % 1023,7 hPa 0,0 l/m 2,7 km/h SO 139 5 min 0,7 UV-I 3,9 C 8,7 C 3,2 km/h
21.04.2019 08:15 8,0 C 31,0 C 10,0 C 6,7 C 9,4 C 74 % 1023,7 hPa 0,0 l/m 3,7 km/h SO 139 5 min 0,5 UV-I 3,7 C 8,0 C 3,2 km/h
21.04.2019 08:10 7,6 C 30,1 C 9,9 C 6,3 C 9,0 C 75 % 1023,7 hPa 0,0 l/m 2,7 km/h S-SO 161 5 min 0,5 UV-I 3,5 C 7,6 C 4,2 km/h
21.04.2019 08:05 7,1 C 29,4 C 10,0 C 6,0 C 8,3 C 78 % 1023,7 hPa 0,0 l/m 2,7 km/h S-SO 161 5 min 0,3 UV-I 3,5 C 7,1 C 4,8 km/h
21.04.2019 08:00 6,4 C 28,8 C 10,0 C 5,9 C 7,7 C 79 % 1023,7 hPa 0,0 l/m 3,7 km/h S 184 5 min 0,2 UV-I 3,0 C 6,4 C 5,8 km/h
21.04.2019 07:55 5,7 C 27,7 C 10,0 C 5,5 C 6,5 C 82 % 1023,7 hPa 0,0 l/m 4,2 km/h S-SO 161 5 min 0,2 UV-I 2,9 C 5,7 C 8,8 km/h
21.04.2019 07:50 5,2 C 26,9 C 10,0 C 5,5 C 6,1 C 83 % 1023,7 hPa 0,0 l/m 4,2 km/h S 184 5 min 0,2 UV-I 2,6 C 5,2 C 8,2 km/h
21.04.2019 07:45 4,1 C 25,7 C 10,1 C 5,2 C 4,9 C 84 % 1024,0 hPa 0,0 l/m 3,2 km/h S 184 5 min 0,2 UV-I 1,6 C 4,1 C 8,8 km/h
21.04.2019 07:40 3,9 C 24,4 C 10,1 C 5,0 C 4,1 C 84 % 1024,0 hPa 0,0 l/m 2,7 km/h S-SO 161 5 min 0,1 UV-I 1,4 C 3,9 C 2,9 km/h
21.04.2019 07:35 3,6 C -6,9 C 10,1 C 4,9 C 2,5 C 84 % 1024,0 hPa 0,0 l/m 2,4 km/h SO 139 0 min 0,1 UV-I 1,2 C 3,6 C 0,0 km/h
21.04.2019 07:30 3,6 C -9,6 C 10,1 C 4,9 C 2,2 C 84 % 1024,0 hPa 0,0 l/m 2,7 km/h SO 139 0 min 0,1 UV-I 1,2 C 3,6 C 2,7 km/h
21.04.2019 07:25 3,6 C -10,2 C 10,1 C 4,8 C 2,1 C 83 % 1023,8 hPa 0,0 l/m 4,0 km/h S-SO 161 0 min 0,0 UV-I 1,0 C 3,6 C 2,7 km/h
21.04.2019 07:20 3,5 C -10,8 C 10,1 C 4,7 C 2,1 C 83 % 1023,8 hPa 0,0 l/m 4,2 km/h S 184 0 min 0,0 UV-I 0,9 C 3,5 C 5,6 km/h
21.04.2019 07:15 3,5 C -11,5 C 10,2 C 4,7 C 2,1 C 83 % 1023,8 hPa 0,0 l/m 2,4 km/h S-SO 161 0 min 0,0 UV-I 0,9 C 3,5 C 6,1 km/h
21.04.2019 07:10 3,5 C -11,9 C 10,2 C 4,7 C 1,8 C 82 % 1023,8 hPa 0,0 l/m 1,3 km/h S-SW 206 0 min 0,0 UV-I 0,7 C 3,5 C 3,2 km/h
21.04.2019 07:05 3,5 C -12,4 C 10,2 C 4,7 C 1,6 C 82 % 1023,6 hPa 0,0 l/m 0,3 km/h S-SO 161 0 min 0,0 UV-I 0,7 C 3,5 C 0,0 km/h
21.04.2019 07:00 3,5 C -12,8 C 10,2 C 4,6 C 1,4 C 82 % 1023,6 hPa 0,0 l/m 0,3 km/h SW 229 0 min 0,0 UV-I 0,7 C 3,5 C 0,0 km/h
21.04.2019 06:55 3,5 C -13,3 C 10,2 C 4,6 C 1,4 C 82 % 1023,6 hPa 0,0 l/m 0,0 km/h S-SO 161 0 min 0,0 UV-I 0,7 C 3,5 C 0,0 km/h
21.04.2019 06:50 3,5 C -13,9 C 10,2 C 4,5 C 1,4 C 82 % 1023,6 hPa 0,0 l/m 0,0 km/h SW 229 0 min 0,0 UV-I 0,7 C 3,5 C 0,0 km/h
21.04.2019 06:45 3,5 C -14,6 C 10,3 C 4,4 C 1,3 C 82 % 1023,6 hPa 0,0 l/m 0,0 km/h S 184 0 min 0,0 UV-I 0,7 C 3,5 C 0,0 km/h
21.04.2019 06:40 3,4 C -15,0 C 10,3 C 4,4 C 1,3 C 82 % 1023,6 hPa 0,0 l/m 0,0 km/h S-SO 161 0 min 0,0 UV-I 0,6 C 3,4 C 0,0 km/h
21.04.2019 06:35 3,5 C -16,0 C 10,4 C 4,4 C 1,3 C 82 % 1023,6 hPa 0,0 l/m 0,0 km/h S-SO 161 0 min 0,0 UV-I 0,7 C 3,5 C 0,0 km/h
21.04.2019 06:30 3,4 C -16,8 C 10,4 C 4,4 C 1,3 C 82 % 1023,6 hPa 0,0 l/m 0,0 km/h SW 229 0 min 0,0 UV-I 0,6 C 3,4 C 0,0 km/h
21.04.2019 06:25 3,5 C -17,9 C 10,4 C 4,4 C 1,1 C 82 % 1023,6 hPa 0,0 l/m 0,0 km/h S-SW 206 0 min 0,0 UV-I 0,7 C 3,5 C 0,0 km/h
21.04.2019 06:20 3,6 C -18,7 C 10,4 C 4,5 C 1,1 C 82 % 1023,6 hPa 0,0 l/m 0,0 km/h S 184 0 min 0,0 UV-I 0,8 C 3,6 C 0,0 km/h
21.04.2019 06:15 3,6 C -20,1 C 10,6 C 4,7 C 1,1 C 82 % 1023,6 hPa 0,0 l/m 0,0 km/h S 184 0 min 0,0 UV-I 0,8 C 3,6 C 0,0 km/h
21.04.2019 06:10 3,6 C -20,8 C 10,5 C 4,6 C 1,2 C 81 % 1023,6 hPa 0,0 l/m 0,0 km/h SO 139 0 min 0,0 UV-I 0,7 C 3,6 C 0,0 km/h
21.04.2019 06:05 3,7 C -21,6 C 10,6 C 4,7 C 1,3 C 81 % 1023,8 hPa 0,0 l/m 0,3 km/h SW 229 0 min 0,0 UV-I 0,7 C 3,7 C 0,0 km/h
21.04.2019 06:00 3,9 C -21,6 C 10,6 C 4,7 C 1,3 C 82 % 1023,8 hPa 0,0 l/m 0,3 km/h SW 229 0 min 0,0 UV-I 1,1 C 3,9 C 0,0 km/h
21.04.2019 05:55 3,9 C -22,1 C 10,6 C 4,9 C 1,4 C 82 % 1023,8 hPa 0,0 l/m 0,0 km/h S 184 0 min 0,0 UV-I 1,1 C 3,9 C 0,0 km/h
21.04.2019 05:50 3,9 C -22,4 C 10,6 C 4,8 C 1,4 C 82 % 1023,8 hPa 0,0 l/m 0,0 km/h S 184 0 min 0,0 UV-I 1,1 C 3,9 C 0,0 km/h
_ Min-Zeit 06:40 05:40 08:10 06:45 06:25 00:04 09:10 - 06:55 - - - 07:25 06:40 06:40 08:35
Minimum _ 3,4 C -22,7 C 9,9 C 4,4 C 1,1 C 67 % 1023,6 hPa - 0,0 km/h - - - 0,0 UV-I 0,6 C 3,4 C 0,0 km/h
_ Max-Zeit 09:10 09:10 00:04 09:10 09:00 07:45 00:04 09:10 09:10 - - 09:10 09:10 09:10 09:10 07:55
Maximum _ 10,2 C 36,1 C 13,0 C 22,2 C 15,0 C 84 % 1026,4 hPa 0,0 l/m 6,6 km/h
S
- - 5 min 2,3 UV-I 4,6 C 10,1 C 8,8 km/h
S-SO
Durchschnitt _ 6,0 C -11,8 C 11,2 C 7,1 C 4,7 C 77 % 1024,4 hPa #0,0 l/m 1,1 km/h S - #1:35 h 0,9 UV-I 2,2 C 6,0 C 1,7 km/h